Time,TemperatureF,DewpointF,PressureIn,WindDirection,WindDirectionDegrees,WindSpeedMPH,WindSpeedGustMPH,Humidity,HourlyPrecipIn,Conditions,Clouds,dailyrainin,SoftwareType,DateUTC
2013-08-04 00:00:00,83.2,76.0,30.08,WSW,240,1.0,7.0,79,0.00,,,0.01,weatherlink.com 1.10,2013-08-04 04:00:00,
2013-08-04 00:15:00,83.1,76.0,30.08,West,266,1.0,4.0,79,0.00,,,0.01,weatherlink.com 1.10,2013-08-04 04:15:00,
2013-08-04 00:30:00,83.2,76.0,30.07,SW,227,1.0,7.0,80,0.00,,,0.01,weatherlink.com 1.10,2013-08-04 04:30:00,
2013-08-04 00:45:00,83.2,76.0,30.07,SW,227,1.0,7.0,79,0.00,,,0.01,weatherlink.com 1.10,2013-08-04 04:45:00,
2013-08-04 01:00:00,83.1,77.0,30.07,SW,236,2.0,5.0,81,0.00,,,0.00,weatherlink.com 1.10,2013-08-04 05:00:00,
2013-08-04 01:15:00,82.9,77.0,30.07,WNW,290,1.0,6.0,81,0.00,,,0.00,weatherlink.com 1.10,2013-08-04 05:15:00,
2013-08-04 01:30:00,82.8,76.0,30.06,SW,216,2.0,4.0,81,0.00,,,0.00,weatherlink.com 1.10,2013-08-04 05:30:00,
2013-08-04 01:45:00,82.7,77.0,30.06,WSW,242,2.0,4.0,82,0.00,,,0.00,weatherlink.com 1.10,2013-08-04 05:45:00,
2013-08-04 02:00:00,82.3,77.0,30.05,WSW,238,2.0,4.0,83,0.00,,,0.00,weatherlink.com 1.10,2013-08-04 06:00:00,
2013-08-04 02:15:00,82.1,77.0,30.05,WSW,249,2.0,4.0,84,0.00,,,0.00,weatherlink.com 1.10,2013-08-04 06:15:00,
2013-08-04 02:30:00,82.0,76.0,30.04,SW,233,0.0,3.0,83,0.00,,,0.00,weatherlink.com 1.10,2013-08-04 06:30:00,
2013-08-04 02:45:00,82.0,76.0,30.04,WSW,250,0.0,4.0,83,0.00,,,0.00,weatherlink.com 1.10,2013-08-04 06:45:00,
2013-08-04 03:00:00,81.8,76.0,30.04,WNW,287,0.0,3.0,83,0.00,,,0.00,weatherlink.com 1.10,2013-08-04 07:00:00,
2013-08-04 03:15:00,81.5,76.0,30.03,SW,221,1.0,3.0,84,0.00,,,0.00,weatherlink.com 1.10,2013-08-04 07:15:00,
2013-08-04 03:30:00,81.5,76.0,30.03,West,271,0.0,5.0,84,0.00,,,0.00,weatherlink.com 1.10,2013-08-04 07:30:00,
2013-08-04 03:45:00,81.1,77.0,30.03,West,271,0.0,2.0,86,0.00,,,0.00,weatherlink.com 1.10,2013-08-04 07:45:00,
2013-08-04 04:01:00,81.0,77.0,30.02,West,271,0.0,0.0,86,0.00,,,0.00,weatherlink.com 1.10,2013-08-04 08:01:00,
2013-08-04 04:16:00,80.8,76.0,30.02,West,271,0.0,2.0,86,0.00,,,0.00,weatherlink.com 1.10,2013-08-04 08:16:00,
2013-08-04 04:31:00,80.3,76.0,30.02,SW,225,1.0,3.0,87,0.00,,,0.00,weatherlink.com 1.10,2013-08-04 08:31:00,
2013-08-04 04:46:00,81.1,76.0,30.02,WSW,240,2.0,3.0,85,0.00,,,0.00,weatherlink.com 1.10,2013-08-04 08:46:00,
2013-08-04 05:01:00,81.1,76.0,30.02,West,276,0.0,3.0,85,0.00,,,0.00,weatherlink.com 1.10,2013-08-04 09:01:00,
2013-08-04 05:16:00,80.6,76.0,30.02,West,276,0.0,2.0,86,0.00,,,0.00,weatherlink.com 1.10,2013-08-04 09:16:00,
2013-08-04 05:30:00,80.3,76.0,30.03,SW,225,0.0,4.0,87,0.00,,,0.00,weatherlink.com 1.10,2013-08-04 09:30:00,
2013-08-04 05:45:00,79.9,77.0,30.03,SW,225,0.0,0.0,89,0.00,,,0.00,weatherlink.com 1.10,2013-08-04 09:45:00,
2013-08-04 06:01:00,79.3,77.0,30.03,SW,225,0.0,1.0,91,0.00,,,0.00,weatherlink.com 1.10,2013-08-04 10:01:00,
2013-08-04 06:15:00,78.9,77.0,30.03,SW,225,0.0,0.0,92,0.00,,,0.00,weatherlink.com 1.10,2013-08-04 10:15:00,
2013-08-04 06:31:00,78.6,77.0,30.03,SW,225,0.0,0.0,94,0.00,,,0.00,weatherlink.com 1.10,2013-08-04 10:31:00,
2013-08-04 06:46:00,78.9,77.0,30.04,SW,225,0.0,0.0,95,0.00,,,0.00,weatherlink.com 1.10,2013-08-04 10:46:00,
2013-08-04 07:02:00,78.7,77.0,30.04,SW,225,0.0,0.0,95,0.00,,,0.00,weatherlink.com 1.10,2013-08-04 11:02:00,
2013-08-04 07:16:00,78.9,78.0,30.05,SW,225,0.0,0.0,96,0.00,,,0.00,weatherlink.com 1.10,2013-08-04 11:16:00,
2013-08-04 07:31:00,79.1,78.0,30.05,SW,225,0.0,0.0,96,0.00,,,0.00,weatherlink.com 1.10,2013-08-04 11:31:00,
2013-08-04 07:46:00,79.6,78.0,30.05,SW,225,0.0,0.0,96,0.00,,,0.00,weatherlink.com 1.10,2013-08-04 11:46:00,
2013-08-04 08:01:00,80.5,77.0,30.05,SW,234,3.0,5.0,88,0.00,,,0.00,weatherlink.com 1.10,2013-08-04 12:01:00,
2013-08-04 08:16:00,81.2,76.0,30.06,WSW,244,1.0,5.0,85,0.00,,,0.00,weatherlink.com 1.10,2013-08-04 12:16:00,
2013-08-04 08:31:00,80.9,77.0,30.06,SW,218,1.0,3.0,87,0.00,,,0.00,weatherlink.com 1.10,2013-08-04 12:31:00,
2013-08-04 08:46:00,80.7,78.0,30.06,SW,218,0.0,0.0,90,0.00,,,0.00,weatherlink.com 1.10,2013-08-04 12:46:00,
2013-08-04 09:01:00,83.0,79.0,30.06,SSW,210,0.0,2.0,88,0.00,,,0.00,weatherlink.com 1.10,2013-08-04 13:01:00,
2013-08-04 09:16:00,85.2,79.0,30.06,SW,229,5.0,7.0,82,0.00,,,0.00,weatherlink.com 1.10,2013-08-04 13:16:00,
2013-08-04 10:01:00,85.4,78.0,30.07,WSW,242,5.0,8.0,78,0.00,,,0.00,weatherlink.com 1.10,2013-08-04 14:01:00,
2013-08-04 10:31:00,87.2,78.0,30.07,WNW,301,2.0,9.0,75,0.00,,,0.00,weatherlink.com 1.10,2013-08-04 14:31:00,
2013-08-04 10:46:00,85.4,78.0,30.07,West,277,5.0,11.0,79,0.00,,,0.00,weatherlink.com 1.10,2013-08-04 14:46:00,
2013-08-04 11:01:00,86.5,79.0,30.07,West,271,4.0,12.0,78,0.00,,,0.00,weatherlink.com 1.10,2013-08-04 15:01:00,
2013-08-04 11:16:00,88.3,79.0,30.07,SW,227,4.0,10.0,74,0.00,,,0.00,weatherlink.com 1.10,2013-08-04 15:16:00,
2013-08-04 11:31:00,89.5,79.0,30.07,WSW,254,3.0,11.0,72,0.00,,,0.00,weatherlink.com 1.10,2013-08-04 15:31:00,
2013-08-04 11:46:00,90.4,80.0,30.07,WSW,257,1.0,10.0,71,0.00,,,0.00,weatherlink.com 1.10,2013-08-04 15:46:00,
2013-08-04 12:01:00,91.2,79.0,30.07,West,262,3.0,12.0,68,0.00,,,0.00,weatherlink.com 1.10,2013-08-04 16:01:00,
2013-08-04 12:16:00,90.9,78.0,30.06,WSW,242,4.0,14.0,66,0.00,,,0.00,weatherlink.com 1.10,2013-08-04 16:16:00,
2013-08-04 12:31:00,93.9,80.0,30.06,SW,236,8.0,12.0,65,0.00,,,0.00,weatherlink.com 1.10,2013-08-04 16:31:00,
2013-08-04 12:46:00,92.3,80.0,30.05,WNW,284,9.0,14.0,67,0.00,,,0.00,weatherlink.com 1.10,2013-08-04 16:46:00,
2013-08-04 13:01:00,92.6,80.0,30.05,SW,219,5.0,16.0,67,0.00,,,0.00,weatherlink.com 1.10,2013-08-04 17:01:00,
2013-08-04 13:16:00,92.7,80.0,30.04,WSW,245,6.0,12.0,66,0.00,,,0.00,weatherlink.com 1.10,2013-08-04 17:16:00,
2013-08-04 13:46:00,91.4,79.0,30.04,WSW,254,4.0,11.0,68,0.00,,,0.00,weatherlink.com 1.10,2013-08-04 17:46:00,
2013-08-04 14:32:00,92.2,80.0,30.02,SW,235,9.0,14.0,67,0.00,,,0.00,weatherlink.com 1.10,2013-08-04 18:32:00,
2013-08-04 14:46:00,92.8,80.0,30.02,WSW,257,14.0,14.0,66,0.00,,,0.00,weatherlink.com 1.10,2013-08-04 18:46:00,
2013-08-04 15:17:00,90.0,79.0,30.01,WNW,291,6.0,13.0,71,0.00,,,0.00,weatherlink.com 1.10,2013-08-04 19:17:00,
2013-08-04 15:31:00,90.5,79.0,30.00,NW,310,3.0,11.0,68,0.00,,,0.00,weatherlink.com 1.10,2013-08-04 19:31:00,
2013-08-04 15:47:00,90.6,80.0,29.99,WNW,284,9.0,13.0,70,0.00,,,0.00,weatherlink.com 1.10,2013-08-04 19:47:00,
2013-08-04 16:02:00,91.8,79.0,30.00,SW,225,4.0,12.0,67,0.00,,,0.00,weatherlink.com 1.10,2013-08-04 20:02:00,
2013-08-04 16:16:00,90.6,79.0,30.00,West,273,8.0,11.0,68,0.00,,,0.00,weatherlink.com 1.10,2013-08-04 20:16:00,
2013-08-04 16:32:00,90.2,79.0,30.00,WNW,296,2.0,11.0,69,0.00,,,0.00,weatherlink.com 1.10,2013-08-04 20:32:00,
2013-08-04 16:47:00,88.0,78.0,30.00,North,349,0.0,7.0,73,0.00,,,0.00,weatherlink.com 1.10,2013-08-04 20:47:00,
2013-08-04 17:02:00,87.7,79.0,30.00,WSW,253,5.0,7.0,76,0.00,,,0.00,weatherlink.com 1.10,2013-08-04 21:02:00,
2013-08-04 17:31:00,87.3,78.0,30.00,WNW,294,4.0,9.0,74,0.00,,,0.00,weatherlink.com 1.10,2013-08-04 21:31:00,
2013-08-04 17:47:00,87.0,78.0,29.99,West,273,3.0,9.0,75,0.00,,,0.00,weatherlink.com 1.10,2013-08-04 21:47:00,
2013-08-04 18:02:00,87.1,78.0,29.99,WNW,284,4.0,8.0,75,0.00,,,0.00,weatherlink.com 1.10,2013-08-04 22:02:00,
2013-08-04 18:17:00,87.1,78.0,29.99,SW,229,1.0,5.0,75,0.00,,,0.00,weatherlink.com 1.10,2013-08-04 22:17:00,
2013-08-04 18:32:00,87.2,78.0,29.99,WSW,254,2.0,8.0,74,0.00,,,0.00,weatherlink.com 1.10,2013-08-04 22:32:00,
2013-08-04 18:47:00,87.1,78.0,29.99,WNW,290,2.0,8.0,74,0.00,,,0.00,weatherlink.com 1.10,2013-08-04 22:47:00,
2013-08-04 19:02:00,86.9,78.0,29.99,West,266,7.0,8.0,74,0.00,,,0.00,weatherlink.com 1.10,2013-08-04 23:02:00,
2013-08-04 19:17:00,86.4,77.0,29.99,SW,232,1.0,8.0,74,0.00,,,0.00,weatherlink.com 1.10,2013-08-04 23:17:00,
2013-08-04 19:32:00,85.8,78.0,29.99,WNW,283,5.0,7.0,77,0.00,,,0.00,weatherlink.com 1.10,2013-08-04 23:32:00,
2013-08-04 19:47:00,85.1,78.0,30.00,West,271,2.0,6.0,78,0.00,,,0.00,weatherlink.com 1.10,2013-08-04 23:47:00,
2013-08-04 20:02:00,84.5,77.0,30.01,West,269,3.0,6.0,79,0.00,,,0.00,weatherlink.com 1.10,2013-08-05 00:02:00,
2013-08-04 20:17:00,84.1,77.0,30.00,West,264,2.0,6.0,79,0.00,,,0.00,weatherlink.com 1.10,2013-08-05 00:17:00,
2013-08-04 20:33:00,83.7,76.0,30.01,WNW,287,0.0,4.0,78,0.00,,,0.00,weatherlink.com 1.10,2013-08-05 00:33:00,
2013-08-04 20:47:00,83.4,76.0,30.00,WSW,257,1.0,4.0,79,0.00,,,0.00,weatherlink.com 1.10,2013-08-05 00:47:00,
2013-08-04 21:02:00,83.2,76.0,30.01,WSW,252,0.0,3.0,80,0.00,,,0.00,weatherlink.com 1.10,2013-08-05 01:02:00,
2013-08-04 21:17:00,82.8,76.0,30.01,WNW,285,0.0,2.0,81,0.00,,,0.00,weatherlink.com 1.10,2013-08-05 01:17:00,
2013-08-04 21:32:00,82.7,76.0,30.02,West,275,2.0,3.0,81,0.00,,,0.00,weatherlink.com 1.10,2013-08-05 01:32:00,
2013-08-04 21:47:00,82.5,77.0,30.02,WNW,284,1.0,4.0,82,0.00,,,0.00,weatherlink.com 1.10,2013-08-05 01:47:00,
2013-08-04 22:02:00,82.5,77.0,30.02,West,260,1.0,5.0,82,0.00,,,0.00,weatherlink.com 1.10,2013-08-05 02:02:00,
2013-08-04 22:17:00,82.5,76.0,30.02,WNW,292,0.0,3.0,81,0.00,,,0.00,weatherlink.com 1.10,2013-08-05 02:17:00,
2013-08-04 22:32:00,82.6,77.0,30.01,SW,226,5.0,6.0,83,0.00,,,0.00,weatherlink.com 1.10,2013-08-05 02:32:00,
2013-08-04 22:47:00,82.6,77.0,30.02,SW,223,3.0,6.0,83,0.00,,,0.00,weatherlink.com 1.10,2013-08-05 02:47:00,
2013-08-04 23:02:00,82.6,77.0,30.03,West,273,0.0,5.0,83,0.00,,,0.00,weatherlink.com 1.10,2013-08-05 03:02:00,
2013-08-04 23:17:00,82.6,77.0,30.03,WNW,289,0.0,5.0,83,0.00,,,0.00,weatherlink.com 1.10,2013-08-05 03:17:00,
2013-08-04 23:32:00,82.5,77.0,30.02,WSW,250,0.0,5.0,83,0.00,,,0.00,weatherlink.com 1.10,2013-08-05 03:32:00,
2013-08-04 23:47:00,82.6,77.0,30.02,West,260,2.0,6.0,83,0.00,,,0.00,weatherlink.com 1.10,2013-08-05 03:47:00,